This is the latest recevied weather packets stored in our database for station/object W7TTE. If no packets are shown the sender has not sent any weather packets the latest 10 day(s).
| Time | Temp. | Humidity | Pressure | Rain* | Wind** | Luminosity | Snow |
|---|---|---|---|---|---|---|---|
| 1778009708 | 25° C | 30% | 1013.8 hPa | 0 mm | - | 837 W/m² | - |
| 1778009405 | 24.44° C | 30% | 1013.8 hPa | 0 mm | - | 822 W/m² | - |
| 1778009103 | 25° C | 30% | 1013.8 hPa | 0 mm | - | 816 W/m² | - |
| 1778008801 | 25° C | 30% | 1013.9 hPa | 0 mm | - | 815 W/m² | - |
| 1778008499 | 25° C | 30% | 1013.9 hPa | 0 mm | - | 814 W/m² | - |
| 1778008196 | 24.44° C | 31% | 1014 hPa | 0 mm | - | 829 W/m² | - |
| 1778007890 | 24.44° C | 32% | 1014 hPa | 0 mm | - | 831 W/m² | - |
| 1778007586 | 24.44° C | 32% | 1014.1 hPa | 0 mm | - | 820 W/m² | - |
| 1778007284 | 24.44° C | 32% | 1014.2 hPa | 0 mm | - | 808 W/m² | - |
| 1778006980 | 23.33° C | 33% | 1014.1 hPa | 0 mm | - | 809 W/m² | - |
| 1778006677 | 23.33° C | 34% | 1014.3 hPa | 0 mm | - | 558 W/m² | - |
| 1778006373 | 23.89° C | 33% | 1014.1 hPa | 0 mm | - | 717 W/m² | - |
| 1778006070 | 23.33° C | 33% | 1013.9 hPa | 0 mm | - | 448 W/m² | - |
| 1778005767 | 23.33° C | 34% | 1014.2 hPa | 0 mm | - | 162 W/m² | - |
| 1778005464 | 24.44° C | 33% | 1014.2 hPa | 0 mm | - | 809 W/m² | - |
| 1778005160 | 23.89° C | 34% | 1014.3 hPa | 0 mm | - | 790 W/m² | - |
| 1778004858 | 23.89° C | 34% | 1014.3 hPa | 0 mm | - | 217 W/m² | - |
| 1778004554 | 23.89° C | 34% | 1014.5 hPa | 0 mm | - | 773 W/m² | - |
| 1778004251 | 23.33° C | 34% | 1014.2 hPa | 0 mm | - | 752 W/m² | - |
| 1778003948 | 23.33° C | 34% | 1014.6 hPa | 0 mm | - | 757 W/m² | - |
| 1778003644 | 23.33° C | 35% | 1014.5 hPa | 0 mm | - | 740 W/m² | - |
| 1778003340 | 23.33° C | 35% | 1014.6 hPa | 0 mm | - | 732 W/m² | - |
| 1778003038 | 22.78° C | 35% | 1014.3 hPa | 0 mm | - | 719 W/m² | - |
| 1778002734 | 22.78° C | 34% | 1014.5 hPa | 0 mm | - | 711 W/m² | - |
| 1778002430 | 23.33° C | 34% | 1014.3 hPa | 0 mm | - | 700 W/m² | - |
* Rain latest hour (hover to see other rain measurements)
** Current wind speed in m/s (hover to see current wind gust speed)